Theta_e
350 348 349 352 348 341 340 342 343 342 343 342 342 342 341 341 341 342 342 341 341 340 337 333 331 332 333 333 336 341 347 348 348 347 346 347 349 348 347 346 344 341 340 340 341 341 341 341 340 339 340 340 340 340 341 340 340 340 341 341 341 342 342
350 350 351 352 348 341 339 341 342 343 343 341 341 341 341 342 342 341 341 340 340 339 336 333 331 330 331 332 334 338 344 348 349 348 346 347 349 349 348 347 345 344 341 340 341 342 342 342 341 341 340 341 341 341 342 343 342 341 341 341 342 343 341
350 351 351 352 348 341 338 340 342 343 343 341 341 341 340 341 341 341 340 340 339 338 337 335 333 331 331 332 333 335 340 345 347 347 347 347 348 348 348 347 346 344 343 342 342 342 342 342 343 342 341 341 341 342 343 344 345 344 342 342 343 344 342
350 351 351 351 350 344 339 339 340 342 343 342 341 340 340 341 340 340 339 340 340 339 338 335 334 332 332 331 332 334 337 340 343 344 344 346 347 348 348 347 345 344 344 344 343 343 343 343 343 343 343 342 342 343 344 344 345 345 344 342 344 344 342
350 351 350 350 350 349 344 340 339 340 342 343 343 341 341 341 341 340 340 340 340 340 339 337 335 334 332 332 331 332 334 336 339 340 341 343 346 348 348 348 347 344 344 344 344 343 343 344 344 343 343 343 343 344 344 344 345 345 343 343 344 344 343
350 350 350 349 349 350 349 346 343 342 341 341 343 343 342 342 342 341 341 341 341 342 342 341 339 336 333 333 332 331 332 334 336 337 338 338 341 345 347 349 348 346 344 344 345 344 343 343 345 344 344 343 343 344 344 344 344 344 343 343 344 344 343
349 349 350 350 349 350 350 350 347 346 344 343 343 343 343 343 342 342 342 342 342 343 344 344 343 340 336 334 333 332 331 332 333 334 335 336 337 340 342 345 348 347 347 346 345 345 345 343 344 345 345 345 345 344 343 343 344 343 343 343 342 342 342
346 347 348 348 349 350 350 350 349 348 348 348 346 343 342 343 343 344 345 344 343 343 344 344 344 344 341 337 335 334 333 333 333 333 334 334 336 336 337 339 343 346 348 347 346 346 347 346 345 346 347 347 347 345 343 342 343 343 343 343 342 341 341
343 346 347 347 348 349 350 351 350 349 350 350 349 346 344 343 344 346 346 344 343 343 345 345 344 345 345 342 338 336 335 335 335 335 334 334 334 335 336 336 338 341 344 346 346 347 347 348 347 348 348 347 347 346 345 343 342 342 342 342 342 342 342
342 343 344 346 346 347 349 351 351 351 350 350 350 348 346 345 345 347 348 347 346 346 345 345 345 346 347 346 343 339 335 333 333 335 336 336 335 335 335 336 336 337 339 342 345 347 348 348 348 349 349 348 346 346 346 344 342 341 340 341 341 341 342
343 341 341 343 345 345 347 350 351 351 350 349 349 349 348 348 348 348 349 349 350 350 349 347 346 347 348 349 348 345 341 335 333 333 334 334 335 334 334 335 336 336 336 338 341 345 348 349 349 350 350 349 347 347 346 346 344 341 338 338 339 340 341
342 341 339 340 342 343 345 347 349 350 350 350 350 349 349 350 350 350 350 349 349 351 351 348 347 347 348 349 350 349 347 345 341 337 333 330 329 328 329 331 333 334 334 336 339 342 347 349 350 350 350 349 348 348 347 346 346 344 339 337 337 339 340
338 339 339 339 340 342 343 345 347 349 350 350 350 349 349 349 349 349 350 350 350 350 349 348 349 349 349 349 350 350 350 350 348 344 339 333 329 328 330 333 335 335 334 336 339 342 345 348 349 350 349 349 349 349 348 347 346 346 344 342 340 339 340
336 338 339 340 340 341 343 344 345 347 348 349 349 350 350 349 349 348 349 349 350 349 348 348 348 350 351 350 349 350 351 351 351 350 347 343 339 338 340 342 344 343 341 340 343 345 346 348 348 349 348 348 349 348 348 348 347 347 346 346 344 342 341
335 336 338 340 340 340 341 342 343 344 346 347 349 349 349 349 349 349 349 349 349 348 348 348 347 348 351 352 351 352 353 352 353 353 352 350 349 349 351 352 351 350 348 346 346 348 349 350 349 349 348 347 347 348 348 348 347 347 347 347 346 344 342
333 334 336 337 338 340 340 341 341 342 344 346 348 348 348 349 350 349 349 350 350 350 349 349 349 349 350 351 352 353 354 354 354 353 352 352 351 350 352 354 353 351 349 347 345 346 348 349 349 349 348 347 347 347 347 346 347 347 346 347 346 346 345
332 332 332 332 334 338 340 341 340 340 342 344 345 344 344 347 349 349 349 349 350 350 350 350 350 350 350 350 351 351 352 352 352 351 351 351 351 349 349 351 352 353 353 349 345 345 347 348 348 348 347 348 347 347 347 346 346 345 346 346 346 346 347
331 331 331 331 332 335 339 341 341 340 341 341 342 341 341 344 347 348 349 350 349 349 349 349 349 349 349 349 350 350 350 350 350 350 351 351 351 351 351 351 352 354 355 353 349 347 348 348 348 348 347 347 347 347 348 347 346 346 346 346 346 346 347
330 331 331 331 332 335 339 341 340 338 338 339 340 340 340 341 344 345 346 347 349 350 349 350 350 349 349 349 349 349 349 349 349 350 350 351 351 352 352 351 351 352 353 353 350 348 348 349 348 348 347 346 346 346 348 348 348 347 347 346 346 345 346
330 330 331 331 332 335 338 338 334 332 332 334 337 339 340 340 341 342 342 343 344 346 347 348 348 349 350 349 349 349 349 349 350 349 349 350 350 351 351 351 351 350 351 351 350 349 349 349 349 348 346 346 345 346 347 348 349 348 348 347 346 345 344
329 329 330 331 331 332 335 335 332 330 329 329 330 332 336 338 338 339 339 340 341 342 342 343 344 345 346 346 345 345 346 347 348 349 349 349 349 349 350 350 350 350 350 350 350 350 350 350 350 349 347 345 345 345 346 347 348 348 348 347 347 345 345
328 328 329 330 330 330 332 333 334 333 332 330 328 326 327 331 333 336 338 338 339 340 340 340 340 340 341 341 340 341 341 343 344 344 345 346 347 347 348 348 348 349 350 350 350 351 351 350 350 350 349 347 346 346 345 345 346 346 346 346 345 345 345
326 326 327 328 329 329 329 331 332 332 330 328 324 322 322 323 326 331 335 338 339 339 338 337 336 337 337 338 338 338 340 341 341 340 340 341 342 343 343 343 343 344 345 347 349 351 351 350 350 351 351 350 349 349 348 346 345 344 344 344 343 343 344
325 324 325 326 327 328 329 329 329 327 325 323 320 319 320 320 320 322 326 330 332 330 329 329 329 332 335 336 336 337 338 338 338 338 338 338 338 339 339 340 340 341 341 342 344 347 348 348 349 351 351 351 351 351 350 350 349 348 347 346 345 344 344
324 323 324 324 325 326 327 327 326 325 324 322 321 320 319 318 318 317 318 320 321 320 320 321 323 327 332 334 335 335 335 334 335 336 337 336 335 337 340 340 340 340 341 340 340 340 342 344 346 348 348 349 351 352 351 351 351 350 350 349 348 347 347
324 323 323 324 323 323 324 324 323 323 322 320 320 322 322 320 317 316 316 317 318 317 317 318 319 322 326 329 331 331 331 331 332 335 335 333 331 334 338 339 338 339 340 341 340 339 340 341 342 343 343 343 345 348 350 351 351 352 352 351 351 350 349
323 323 323 324 323 323 323 322 321 320 319 317 317 318 321 321 319 317 317 317 317 317 317 317 318 319 320 321 322 325 327 329 331 334 333 330 329 332 335 335 335 335 335 338 339 339 339 340 340 339 339 339 340 342 345 347 348 350 350 351 352 352 352
323 323 323 323 323 322 321 320 318 316 315 315 314 314 315 318 319 319 321 321 318 316 316 316 317 318 318 318 318 321 325 327 329 331 331 329 329 331 333 331 330 329 329 332 337 337 334 334 333 332 331 333 335 337 338 340 342 344 346 348 349 349 350
322 322 322 321 321 320 319 318 317 315 314 313 313 313 312 313 315 316 319 321 319 317 317 317 316 316 317 317 318 319 322 326 327 328 328 327 327 329 329 329 328 326 326 329 332 330 324 322 322 322 323 324 327 329 330 331 333 337 340 342 344 345 347
321 321 321 320 320 319 318 317 316 315 314 313 313 313 313 313 313 313 315 316 316 316 317 319 319 318 316 317 318 318 318 321 325 326 327 326 327 328 328 327 326 325 325 324 323 320 317 316 317 317 318 320 322 323 324 325 327 330 332 335 337 339 341
321 321 320 319 319 318 318 317 316 315 314 314 313 314 314 314 314 314 313 314 314 313 314 317 320 320 318 316 316 317 318 319 321 324 325 325 325 326 327 327 326 324 322 320 317 315 315 315 315 316 317 317 319 320 321 322 324 326 328 330 331 333 334
320 320 319 319 318 317 316 315 314 313 313 314 314 314 315 315 315 315 315 314 314 314 314 315 318 320 321 320 318 318 320 319 318 319 320 320 321 323 325 325 323 321 319 317 315 315 315 315 314 315 315 315 316 317 318 320 322 324 326 327 328 329 330
320 319 319 318 317 316 315 313 312 312 313 314 315 315 315 315 315 315 315 315 315 315 315 315 315 318 321 323 323 323 322 320 319 318 318 317 317 318 320 320 319 318 316 315 314 315 315 314 314 314 314 314 315 315 317 319 321 322 323 324 325 325 326
319 318 317 317 315 314 313 312 312 312 313 313 314 314 314 314 314 315 316 317 317 317 318 317 317 317 319 321 323 324 324 322 321 321 321 320 319 318 318 318 318 318 317 316 316 315 314 314 314 314 313 313 313 313 314 318 321 321 321 322 322 322 323
318 317 316 315 314 312 312 311 312 313 314 314 314 313 312 312 313 315 317 318 318 319 319 320 319 319 321 322 323 324 324 324 323 323 323 322 322 322 320 319 319 319 319 318 317 316 315 315 314 314 313 313 316 318 317 317 319 322 323 324 323 322 322
316 315 314 313 313 312 312 311 311 311 313 314 313 313 312 311 312 314 316 318 319 319 320 320 320 320 321 323 324 324 324 324 324 324 324 323 323 322 321 321 321 320 319 318 318 317 316 316 315 314 314 316 320 323 324 323 323 324 325 325 324 323 323
315 314 314 313 313 313 312 312 311 311 312 313 313 312 311 310 311 313 315 316 318 319 319 320 319 319 320 321 322 323 324 324 324 324 323 323 323 322 321 321 321 320 319 319 318 317 317 317 316 315 315 317 320 323 325 326 326 326 325 324 323 323 323
314 314 313 313 312 313 312 312 313 313 313 313 312 311 310 309 311 312 312 314 316 318 319 319 319 318 318 319 321 322 322 323 323 322 322 322 322 322 321 320 320 319 319 318 317 317 317 317 315 314 315 317 319 321 323 323 324 324 325 325 325 324 324
Wind_Speed
20 23 25 21 23 33 40 42 43 42 41 39 36 34 32 30 28 25 23 20 20 21 22 24 26 26 25 22 21 20 19 18 18 17 15 14 13 12 12 12 12 11 11 10 10 10 10 11 11 11 11 11 11 11 11 11 12 12 12 11 11 10 10
13 17 20 19 21 31 39 41 42 42 42 40 37 35 33 31 29 26 23 20 20 20 22 24 26 26 25 23 22 21 20 19 19 18 17 15 14 13 12 11 10 11 10 10 10 10 10 11 11 11 11 11 11 11 12 12 13 13 13 12 12 12 12
12 10 15 19 20 29 36 38 40 41 42 41 39 36 34 32 29 26 22 20 20 20 21 23 24 25 25 24 23 22 21 21 21 20 18 16 15 14 13 12 11 11 11 10 10 10 10 10 11 11 12 12 11 11 12 12 13 13 13 13 13 13 12
17 13 15 17 16 22 30 34 37 39 40 41 39 37 34 31 29 26 23 20 20 21 21 21 23 23 23 23 23 23 23 22 22 21 19 18 16 14 14 14 13 12 12 11 11 11 11 11 12 12 12 12 12 12 12 12 13 13 14 13 13 12 12
18 17 18 16 12 15 23 29 31 33 37 39 38 38 35 32 31 28 25 22 21 20 18 18 19 21 22 22 22 23 23 23 23 21 20 19 18 16 16 16 15 14 14 13 12 12 12 12 13 13 14 14 13 13 13 13 13 14 14 13 13 13 12
18 20 22 23 20 17 17 22 25 27 32 36 37 38 37 35 34 32 29 25 22 21 20 19 19 20 22 22 22 23 23 23 23 22 21 20 19 18 18 17 17 16 15 14 14 13 14 14 14 14 14 15 14 14 14 14 14 14 13 13 13 13 12
14 17 19 20 22 21 18 20 24 24 25 28 31 35 36 36 35 34 32 29 26 25 24 23 21 21 22 22 22 23 23 23 23 23 22 21 20 19 18 18 18 17 16 15 15 15 15 16 15 14 14 15 15 15 15 14 14 13 13 13 13 12 12
10 12 14 13 14 18 20 21 24 24 22 20 23 28 33 35 35 35 34 33 30 28 27 25 24 23 23 24 24 24 23 23 23 23 23 23 22 20 19 18 18 17 17 16 16 16 16 17 15 15 15 15 16 15 15 15 14 14 13 13 12 12 12
12 12 13 12 10 12 15 17 20 23 22 20 19 22 25 29 31 33 34 34 32 30 29 27 25 23 22 23 24 24 24 23 24 24 24 24 24 22 21 20 19 18 18 18 16 16 17 17 16 15 15 15 16 16 15 15 14 15 14 14 13 12 12
13 14 13 12 9 9 9 12 14 16 19 20 21 21 22 24 26 28 31 32 32 31 31 29 27 24 22 20 21 22 23 24 23 24 25 25 25 24 23 22 21 20 19 18 17 16 17 17 17 16 15 15 16 15 15 14 15 15 16 15 14 13 12
12 13 17 16 12 9 8 9 10 11 17 22 24 23 24 23 23 26 28 29 29 28 29 29 28 26 24 22 21 21 21 22 23 23 25 26 25 25 24 23 22 22 20 20 19 17 17 17 18 17 17 16 16 16 15 15 14 15 16 16 16 15 14
14 12 15 18 17 16 14 11 10 11 15 23 27 26 27 25 22 22 24 27 28 27 28 29 28 27 25 23 22 21 21 21 22 22 23 25 26 25 23 22 22 22 22 21 20 18 17 17 18 19 19 18 17 16 16 15 15 15 15 16 17 17 16
18 15 15 16 19 20 19 17 14 14 16 21 26 29 31 31 29 25 22 24 26 26 27 27 27 26 25 24 22 22 23 22 22 21 21 22 23 23 21 20 20 20 21 22 21 19 18 18 19 20 20 20 19 18 16 15 15 15 15 15 16 18 18
22 20 18 19 21 22 21 20 18 16 17 18 20 23 26 29 32 31 26 24 25 25 25 25 25 26 25 24 23 23 24 24 23 22 22 22 21 20 19 18 17 18 20 22 22 21 20 20 19 20 20 21 21 20 18 17 16 15 15 15 16 17 18
22 21 21 22 23 22 22 21 18 16 15 15 14 15 18 22 27 31 30 28 25 25 26 27 28 28 25 23 24 24 25 25 25 24 24 24 23 22 20 19 18 18 20 22 23 24 23 22 21 21 21 22 22 22 21 20 19 17 16 16 16 17 17
21 21 22 23 22 22 21 20 19 19 17 16 15 14 15 19 23 25 26 24 21 21 23 24 25 26 24 23 23 24 24 25 26 25 24 25 25 25 24 22 20 21 21 22 23 24 24 25 24 24 23 23 24 23 23 22 21 19 18 17 17 17 18
23 23 23 23 23 21 21 20 20 20 19 18 16 14 15 18 20 22 22 19 18 17 17 17 18 19 19 20 20 20 20 21 23 23 23 24 25 24 23 22 22 23 23 23 23 23 23 24 25 26 26 26 26 26 25 25 23 21 19 19 19 20 20
24 23 24 24 23 22 22 22 23 22 20 18 16 14 15 17 16 17 20 20 19 17 14 12 13 13 13 14 15 16 16 17 19 20 19 21 22 21 21 21 21 22 24 25 25 24 24 23 24 26 27 28 28 28 29 28 27 25 23 22 21 22 23
26 25 25 25 24 24 25 24 24 23 21 19 17 15 15 16 14 12 14 16 17 18 16 14 13 12 12 11 11 12 13 14 16 16 16 18 19 20 21 21 20 22 24 27 27 26 25 24 24 25 27 29 29 29 30 30 30 28 26 25 23 23 24
29 27 26 26 25 26 26 26 24 23 22 21 20 18 17 16 16 13 11 11 13 13 13 13 13 13 12 11 9 9 10 11 12 12 13 15 15 15 17 18 20 23 25 27 28 28 26 26 25 25 26 28 29 29 30 30 31 30 28 27 26 25 24
30 29 28 26 26 25 25 24 24 23 23 22 20 19 18 17 17 16 14 14 13 13 12 13 13 13 12 11 9 8 7 7 8 9 11 12 11 9 9 10 14 18 23 26 28 28 27 27 27 27 27 28 29 29 29 30 30 31 30 29 28 27 26
31 29 28 26 26 25 24 22 22 21 21 20 19 18 18 16 15 16 16 16 16 16 16 15 14 14 12 10 9 8 7 8 7 5 5 7 9 7 6 7 9 12 17 22 24 25 24 23 23 24 27 29 29 29 30 30 30 29 29 28 28 28 27
30 29 28 26 24 24 24 22 21 20 18 16 16 16 17 17 16 16 16 16 16 15 15 15 14 13 10 8 7 7 8 9 9 8 6 2 2 3 4 5 6 8 12 16 17 18 18 18 18 19 22 24 25 26 26 27 28 28 28 28 28 28 27
29 28 27 26 24 23 22 20 19 17 15 13 13 13 13 14 15 16 16 15 14 14 13 13 13 12 10 8 7 7 8 9 9 10 10 9 8 6 4 3 3 2 5 9 13 14 13 13 15 16 17 19 20 20 20 21 24 25 26 27 28 28 28
29 28 26 25 23 21 20 17 15 14 12 11 11 10 9 9 11 13 14 14 14 14 13 13 13 12 10 8 7 6 6 7 8 9 11 11 10 9 8 7 7 6 3 1 5 8 8 9 11 13 13 13 15 16 16 17 19 21 23 24 25 26 27
29 28 25 23 21 20 18 15 13 12 10 10 10 9 7 5 6 7 10 10 11 12 13 13 12 11 10 8 6 5 5 5 6 7 8 8 7 8 8 8 7 7 6 4 2 2 3 3 6 9 10 10 11 12 13 14 15 17 19 20 21 22 24
28 26 23 22 20 18 17 14 11 10 8 8 9 8 7 6 4 5 6 6 6 7 9 10 10 10 9 8 6 5 4 5 5 5 6 6 5 5 5 6 5 5 5 4 3 3 3 2 1 3 6 7 7 7 9 11 12 14 16 17 18 19 20
27 24 22 20 18 15 14 12 9 7 6 5 5 6 7 7 6 6 6 5 5 5 5 6 6 7 8 8 7 5 4 4 4 3 3 4 3 2 2 2 2 2 3 2 1 2 2 2 2 1 1 2 3 4 5 7 9 11 13 15 15 17 18
26 24 21 19 17 13 10 8 7 6 4 3 3 3 5 7 7 8 8 7 6 6 5 5 4 4 5 7 7 5 4 4 3 2 1 1 2 2 1 2 2 1 0 1 1 1 2 2 2 2 1 1 1 2 2 3 6 8 10 12 13 14 15
25 23 21 18 16 12 9 6 5 4 3 1 1 2 3 5 6 7 8 8 7 7 6 6 5 5 4 5 5 5 4 3 3 2 1 1 2 2 2 2 3 3 3 2 3 3 3 3 2 2 2 2 2 2 3 3 4 5 6 8 10 11 12
24 22 19 17 15 11 8 5 4 3 2 2 3 4 5 5 6 6 6 6 7 7 7 7 7 7 6 6 5 4 3 3 3 2 3 3 4 4 4 5 6 6 7 7 7 6 5 5 4 3 3 2 2 2 3 3 3 5 5 6 7 8 9
23 20 18 16 13 9 6 4 3 3 3 4 4 5 6 6 6 7 7 7 7 6 6 7 9 9 8 8 7 6 5 4 3 4 5 5 6 6 7 8 9 10 10 10 9 8 7 7 6 5 4 3 2 2 3 4 4 5 6 7 7 8 9
21 18 15 12 10 7 5 4 4 4 3 4 4 4 4 5 5 6 6 7 7 6 5 6 7 9 9 9 8 7 7 7 6 5 5 6 6 6 7 8 9 10 11 11 10 9 9 9 9 8 7 6 5 3 3 5 6 6 7 8 9 10 11
19 16 12 9 7 5 4 3 3 3 3 3 2 2 2 3 3 3 4 4 5 5 5 5 5 6 5 6 6 6 7 8 8 7 6 7 7 7 7 8 8 10 12 11 11 10 10 11 11 11 10 10 9 7 5 6 7 8 9 10 11 12 13
16 13 10 8 6 5 5 4 3 1 1 1 0 2 2 2 2 3 3 3 4 5 5 5 5 4 3 4 4 5 5 6 6 6 7 7 8 9 9 9 9 10 11 10 9 10 11 12 13 13 11 11 10 10 8 7 9 10 11 12 13 14 15
12 10 7 6 6 5 5 4 3 3 3 2 3 4 4 4 4 4 4 4 4 4 5 5 4 4 5 5 5 5 5 5 5 6 6 7 8 9 9 9 10 10 10 8 7 8 10 13 14 13 12 10 9 9 10 9 10 11 13 14 14 14 15
9 7 6 5 5 5 4 3 3 4 4 5 5 5 5 5 5 5 6 6 5 4 5 5 5 5 6 6 6 6 6 7 7 8 8 9 9 10 11 10 10 10 10 9 8 8 10 12 13 12 12 10 8 7 8 9 10 12 13 15 15 15 16
8 7 6 5 5 4 3 3 3 4 4 6 7 7 6 5 6 8 9 8 7 5 5 6 6 7 7 7 7 8 8 9 9 10 10 11 11 12 13 13 12 12 11 10 10 10 12 14 13 11 11 11 10 9 10 10 11 12 13 14 15 16 17
Wind_Direction
207 206 205 207 204 199 198 198 198 199 200 201 202 203 203 204 205 206 209 213 216 215 211 209 207 207 208 209 205 204 206 209 210 211 212 211 211 216 214 205 206 212 212 212 219 221 220 220 217 216 219 220 220 219 218 220 223 227 231 235 240 246 243
215 211 203 202 204 200 199 200 199 199 201 203 203 204 205 205 205 206 209 212 213 212 210 211 210 208 208 208 207 205 206 209 212 212 213 210 208 213 215 212 210 213 213 211 213 216 215 217 219 219 221 224 225 225 225 228 230 231 234 237 241 246 245
206 211 199 199 200 197 196 198 199 201 202 203 204 205 206 206 206 207 209 211 210 208 209 212 213 211 209 208 208 207 207 209 212 214 214 212 210 212 214 215 213 211 212 211 212 213 212 217 221 220 223 224 226 228 230 234 237 237 237 240 244 246 246
192 193 193 199 193 185 191 196 199 202 204 204 205 207 208 208 208 208 209 212 209 206 207 210 214 214 212 210 209 209 209 210 213 216 217 215 214 215 216 218 216 212 211 210 212 211 211 219 221 220 224 224 224 228 232 236 241 240 239 242 246 246 246
178 185 188 197 193 181 186 191 195 200 203 204 205 207 209 209 210 211 211 213 212 208 206 208 213 215 215 213 211 211 212 213 215 218 219 218 217 217 218 220 219 217 213 212 213 212 213 218 221 222 224 224 223 225 227 231 236 238 239 241 244 246 246
166 180 186 192 199 203 192 183 186 195 201 205 207 207 209 210 212 213 212 213 215 213 211 211 214 216 216 216 214 213 214 215 217 219 221 222 221 221 221 222 223 223 221 219 217 216 216 218 221 223 225 226 225 224 224 225 229 234 238 240 242 244 246
158 172 178 184 195 209 208 189 186 190 195 202 207 209 210 211 213 215 214 214 215 215 215 214 215 217 218 216 215 215 215 218 220 221 222 224 225 226 225 226 227 228 228 228 227 224 221 221 223 223 225 228 230 230 228 225 225 229 234 237 239 240 243
130 150 161 163 176 200 211 202 195 195 191 192 200 207 210 212 213 214 214 214 216 217 217 217 217 220 221 221 219 216 217 219 222 223 224 225 227 229 229 229 231 232 233 232 232 231 229 227 225 223 225 229 233 236 235 232 231 231 233 235 236 236 238
113 132 156 158 150 172 195 198 199 200 195 187 187 196 204 208 211 213 214 216 217 218 219 219 219 220 222 225 226 224 221 220 221 224 226 228 229 231 232 232 232 234 236 236 235 235 235 234 233 231 233 234 235 235 236 238 238 237 238 237 235 235 234
108 109 130 148 145 138 159 180 192 199 199 193 188 192 198 202 207 211 213 216 218 219 220 220 220 221 222 224 226 228 227 225 223 223 224 227 229 231 232 234 235 236 238 239 240 240 241 241 239 238 240 240 238 236 237 240 242 242 242 240 238 237 234
121 112 113 123 126 115 125 163 182 191 202 206 204 201 199 200 202 205 208 212 216 218 220 221 222 222 223 224 224 226 227 227 226 225 226 227 228 230 232 234 236 237 239 240 240 240 243 244 244 242 242 243 243 244 244 245 247 247 244 242 242 240 237
133 131 118 116 118 115 115 129 147 161 188 206 211 209 205 203 202 202 205 209 213 217 220 225 229 228 226 226 227 229 231 230 228 228 228 228 227 228 231 233 235 237 238 238 237 238 240 243 246 247 248 248 249 252 253 252 252 252 250 248 247 245 241
120 121 118 116 115 116 115 116 127 146 167 187 201 208 210 210 210 210 209 209 211 213 215 221 231 237 234 229 227 230 234 235 232 230 231 232 230 226 225 228 232 236 236 234 233 235 238 241 245 248 251 252 252 254 258 259 258 258 259 259 255 250 245
109 110 114 117 116 116 117 115 120 139 152 161 177 194 202 206 210 214 214 213 215 216 217 221 231 238 237 230 227 232 236 237 237 235 234 236 234 228 225 225 231 240 242 239 236 236 238 241 245 249 251 251 252 253 257 261 263 264 266 268 266 261 255
103 105 112 117 117 117 119 119 121 132 144 148 150 166 185 198 207 214 217 220 222 224 226 230 232 233 231 226 226 233 237 237 238 238 237 236 233 231 229 228 230 236 242 242 242 242 243 245 247 250 251 252 252 254 255 257 260 263 266 270 271 270 268
107 106 107 110 113 117 121 126 130 134 144 149 142 140 157 176 191 200 206 209 210 211 216 221 225 226 225 224 226 230 232 233 234 235 234 233 232 229 227 226 228 231 235 237 239 241 244 247 250 251 252 254 255 256 255 256 256 257 260 265 269 272 274
113 111 109 107 110 116 122 125 129 135 142 149 151 149 146 152 165 174 177 178 180 184 192 202 209 214 218 221 223 225 227 229 232 232 228 228 232 232 229 228 231 237 240 240 238 238 239 244 249 251 252 255 257 257 257 257 257 258 258 259 263 267 271
116 116 112 109 109 114 121 120 118 123 129 136 148 158 155 151 155 158 158 159 163 167 172 181 192 201 209 215 218 220 223 225 229 229 226 226 229 232 233 233 234 240 247 248 244 241 240 242 247 251 252 253 255 256 257 258 259 261 262 261 261 264 267
119 119 116 113 111 113 119 119 115 115 117 120 126 135 147 158 163 159 156 156 158 160 161 165 175 185 193 202 210 215 218 222 226 228 230 230 229 229 232 234 234 239 248 253 250 244 241 242 244 249 252 253 253 254 254 256 257 259 260 260 260 262 265
122 121 119 117 114 113 117 119 115 113 112 113 117 121 128 141 149 150 148 147 147 151 158 164 170 172 176 181 188 194 199 206 214 221 227 230 231 232 234 236 236 238 244 250 250 244 240 241 242 244 248 250 250 251 252 253 255 257 258 258 259 260 261
126 124 121 118 114 113 117 120 118 114 111 109 111 115 119 123 129 131 132 135 136 139 147 158 162 161 161 159 155 158 164 169 183 202 213 215 213 211 214 222 231 236 238 242 244 241 238 240 242 244 248 249 248 247 248 250 252 254 257 259 260 260 260
130 127 124 121 117 116 118 121 122 119 114 110 107 108 112 114 119 124 124 125 126 125 130 136 138 139 143 142 131 123 125 129 132 150 188 211 213 205 194 200 217 227 229 232 237 238 237 241 246 249 251 251 248 245 246 247 248 251 254 257 259 260 261
132 129 126 125 124 124 123 123 124 121 116 111 107 107 109 111 116 122 123 124 122 121 122 122 119 119 126 132 123 109 110 117 115 107 101 114 225 235 235 231 235 237 233 231 232 233 234 239 243 247 249 251 250 247 247 247 248 249 250 252 254 256 258
133 131 130 130 131 131 130 128 127 124 119 112 105 104 109 115 119 122 122 122 123 121 118 113 109 109 113 119 119 108 105 112 116 113 105 97 94 102 128 143 141 182 235 238 235 233 236 238 237 239 246 253 255 254 251 251 251 252 252 253 253 253 254
135 133 132 133 135 135 136 136 134 130 125 118 109 105 107 113 120 123 122 121 122 123 120 115 115 117 122 127 129 122 117 117 116 115 112 106 103 105 113 118 112 100 91 242 240 236 242 250 247 242 245 252 257 257 256 255 256 256 256 256 256 255 254
138 138 138 138 140 140 141 142 142 138 132 122 120 125 128 124 124 125 123 123 126 128 126 123 122 124 129 137 139 136 135 130 121 117 113 108 107 110 112 112 111 106 99 93 104 176 209 243 254 251 251 257 260 259 260 261 261 262 261 260 260 259 258
140 141 142 143 145 145 144 144 144 144 141 131 130 143 154 160 160 146 137 139 143 140 134 131 130 131 133 137 140 141 142 135 124 120 113 98 95 110 117 111 107 106 104 96 85 85 98 106 151 247 249 255 262 265 268 269 269 268 268 268 267 266 265
145 146 147 148 149 150 150 148 145 143 142 137 142 158 170 180 188 184 176 177 180 172 159 148 146 147 146 143 141 144 149 145 134 127 115 94 82 93 105 92 85 100 109 113 101 67 61 66 72 84 215 250 269 280 282 282 280 277 275 276 276 276 274
151 152 155 155 155 158 158 151 143 137 133 134 150 176 187 193 199 198 196 200 203 199 196 192 190 185 171 158 151 151 161 169 167 163 143 62 26 12 18 20 18 32 114 184 208 326 358 10 24 32 29 7 332 320 317 306 293 285 281 280 280 281 280
157 158 159 159 158 159 160 153 141 132 130 157 209 231 226 220 218 212 208 209 212 212 210 210 214 221 219 200 176 163 170 191 198 207 245 295 328 326 325 339 351 346 334 331 337 338 344 357 9 12 10 15 13 360 350 341 321 304 295 289 285 285 286
162 161 161 158 154 154 156 154 146 145 163 204 236 245 243 240 238 236 232 228 226 226 223 222 227 233 239 242 232 212 206 216 225 249 280 294 295 293 303 325 335 336 335 339 344 346 348 350 349 352 352 347 341 332 329 330 322 312 311 308 303 300 300
161 161 160 156 152 154 158 155 155 169 183 195 217 234 243 247 249 251 251 249 248 246 236 229 231 232 233 240 246 255 267 266 259 268 281 290 295 296 304 317 325 328 331 334 338 345 351 350 343 338 336 325 305 298 309 314 306 300 304 308 306 305 304
160 160 160 157 153 153 158 163 167 174 185 191 202 223 242 253 256 257 258 258 258 259 253 242 236 233 231 232 236 248 267 276 281 286 286 290 298 305 314 322 327 329 329 330 333 338 345 348 344 338 334 324 308 293 302 312 303 291 290 296 300 303 304
162 160 159 159 159 161 173 180 171 164 172 179 188 224 252 261 254 247 251 252 244 239 240 238 235 232 228 227 228 232 246 261 275 290 301 308 312 315 321 332 342 347 345 341 338 339 344 348 347 345 341 333 321 309 303 307 306 299 295 298 301 304 305
163 162 164 167 171 185 199 199 191 188 175 156 341 318 299 284 254 229 222 216 209 212 218 222 225 222 205 191 196 207 221 236 257 278 293 304 312 317 324 333 345 353 353 347 342 344 350 352 349 345 342 337 329 322 312 302 304 310 313 313 310 309 310
167 171 179 181 181 189 195 203 227 256 274 291 318 325 316 300 273 236 219 213 211 212 220 226 227 222 214 204 198 201 211 224 241 263 281 290 299 307 316 326 335 339 342 339 333 336 344 349 347 339 332 330 330 328 324 316 307 305 308 309 308 308 311
185 193 198 199 200 199 202 224 248 257 269 287 306 318 314 299 280 253 232 227 231 236 238 247 254 248 241 237 233 233 239 249 258 270 282 292 300 305 308 312 316 318 320 320 315 311 320 332 336 329 321 318 315 309 310 311 305 299 298 299 300 302 304
203 212 210 209 215 221 230 249 254 257 278 297 308 315 314 300 283 270 253 236 231 241 254 263 269 269 261 253 251 254 258 263 269 275 282 291 299 304 307 306 303 299 298 301 305 306 311 320 323 318 311 310 306 295 289 289 291 293 293 293 293 296 301